Time,TemperatureF,DewpointF,PressureIn,WindDirection,WindDirectionDegrees,WindSpeedMPH,WindSpeedGustMPH,Humidity,HourlyPrecipIn,Conditions,Clouds,dailyrainin,SoftwareType,DateUTC
2013-07-26 00:02:00,64.0,61.0,30.00,North,0,0.0,0.0,91,0.00,,,0.00,,2013-07-26 05:02:00,
2013-07-26 00:12:00,64.0,61.0,30.00,North,0,0.0,0.0,91,0.00,,,0.00,,2013-07-26 05:12:00,
2013-07-26 00:22:00,64.0,61.0,30.00,North,0,0.0,0.0,91,0.00,,,0.00,,2013-07-26 05:22:00,
2013-07-26 00:32:00,64.0,62.0,30.00,North,0,0.0,0.0,92,0.00,,,0.00,,2013-07-26 05:32:00,
2013-07-26 00:43:00,63.0,61.0,30.00,North,0,0.0,0.0,92,0.00,,,0.00,,2013-07-26 05:43:00,
2013-07-26 00:52:00,63.0,61.0,30.00,North,0,0.0,0.0,92,0.00,,,0.00,,2013-07-26 05:52:00,
2013-07-26 01:02:00,63.0,61.0,30.00,North,0,0.0,0.0,92,0.00,,,0.00,,2013-07-26 06:02:00,
2013-07-26 01:12:00,63.0,61.0,30.00,North,0,0.0,0.0,93,0.00,,,0.00,,2013-07-26 06:12:00,
2013-07-26 01:22:00,63.0,61.0,30.00,North,0,0.0,0.0,93,0.00,,,0.00,,2013-07-26 06:22:00,
2013-07-26 01:33:00,62.0,60.0,30.00,North,0,0.0,0.0,93,0.00,,,0.00,,2013-07-26 06:33:00,
2013-07-26 01:43:00,62.0,60.0,30.00,North,0,0.0,0.0,94,0.00,,,0.00,,2013-07-26 06:43:00,
2013-07-26 01:52:00,62.0,60.0,30.00,North,0,0.0,0.0,94,0.00,,,0.00,,2013-07-26 06:52:00,
2013-07-26 02:02:00,62.0,60.0,30.00,North,0,0.0,0.0,94,0.00,,,0.00,,2013-07-26 07:02:00,
2013-07-26 02:12:00,62.0,60.0,30.00,North,0,0.0,0.0,94,0.00,,,0.00,,2013-07-26 07:12:00,
2013-07-26 02:22:00,62.0,60.0,29.99,North,0,0.0,0.0,94,0.00,,,0.00,,2013-07-26 07:22:00,
2013-07-26 02:32:00,62.0,60.0,29.98,North,0,0.0,0.0,94,0.00,,,0.00,,2013-07-26 07:32:00,
2013-07-26 02:43:00,62.0,60.0,29.98,North,0,0.0,0.0,94,0.00,,,0.00,,2013-07-26 07:43:00,
2013-07-26 02:53:00,62.0,61.0,29.98,North,0,0.0,0.0,95,0.00,,,0.00,,2013-07-26 07:53:00,
2013-07-26 03:02:00,61.0,60.0,29.98,North,0,0.0,0.0,95,0.00,,,0.00,,2013-07-26 08:02:00,
2013-07-26 03:12:00,61.0,60.0,29.98,North,0,0.0,0.0,95,0.00,,,0.00,,2013-07-26 08:12:00,
2013-07-26 03:22:00,61.0,60.0,29.98,North,0,0.0,0.0,95,0.00,,,0.00,,2013-07-26 08:22:00,
2013-07-26 03:32:00,61.0,60.0,29.97,North,0,0.0,0.0,95,0.00,,,0.00,,2013-07-26 08:32:00,
2013-07-26 03:44:00,61.0,60.0,29.97,North,0,0.0,0.0,95,0.00,,,0.00,,2013-07-26 08:44:00,
2013-07-26 03:52:00,61.0,60.0,29.97,North,0,0.0,0.0,95,0.00,,,0.00,,2013-07-26 08:52:00,
2013-07-26 04:02:00,60.0,59.0,29.96,North,0,0.0,0.0,95,0.00,,,0.00,,2013-07-26 09:02:00,
2013-07-26 04:12:00,60.0,59.0,29.96,North,0,0.0,0.0,95,0.00,,,0.00,,2013-07-26 09:12:00,
2013-07-26 04:22:00,60.0,59.0,29.97,North,0,0.0,0.0,96,0.00,,,0.00,,2013-07-26 09:22:00,
2013-07-26 04:32:00,60.0,59.0,29.97,North,0,0.0,0.0,96,0.00,,,0.00,,2013-07-26 09:32:00,
2013-07-26 04:52:00,60.0,59.0,29.98,North,0,0.0,0.0,96,0.00,,,0.00,,2013-07-26 09:52:00,
2013-07-26 05:02:00,60.0,59.0,29.98,North,0,0.0,0.0,96,0.00,,,0.00,,2013-07-26 10:02:00,
2013-07-26 05:12:00,60.0,59.0,29.98,North,0,0.0,0.0,96,0.00,,,0.00,,2013-07-26 10:12:00,
2013-07-26 05:22:00,60.0,59.0,29.97,North,0,0.0,0.0,96,0.00,,,0.00,,2013-07-26 10:22:00,
2013-07-26 05:33:00,60.0,59.0,29.97,North,0,0.0,0.0,96,0.00,,,0.00,,2013-07-26 10:33:00,
2013-07-26 05:42:00,60.0,59.0,29.97,North,0,0.0,0.0,96,0.00,,,0.00,,2013-07-26 10:42:00,
2013-07-26 05:52:00,59.0,58.0,29.97,North,0,0.0,0.0,96,0.00,,,0.00,,2013-07-26 10:52:00,
2013-07-26 06:02:00,59.0,58.0,29.98,North,0,0.0,0.0,96,0.00,,,0.00,,2013-07-26 11:02:00,
2013-07-26 06:12:00,59.0,58.0,29.98,North,0,0.0,0.0,96,0.00,,,0.00,,2013-07-26 11:12:00,
2013-07-26 06:22:00,59.0,58.0,29.98,North,0,0.0,0.0,96,0.00,,,0.00,,2013-07-26 11:22:00,
2013-07-26 06:32:00,59.0,58.0,29.98,North,0,0.0,0.0,96,0.00,,,0.00,,2013-07-26 11:32:00,
2013-07-26 06:43:00,59.0,58.0,29.98,North,0,0.0,0.0,97,0.00,,,0.00,,2013-07-26 11:43:00,
2013-07-26 06:52:00,59.0,58.0,29.99,North,0,0.0,0.0,97,0.00,,,0.00,,2013-07-26 11:52:00,
2013-07-26 07:02:00,60.0,59.0,30.00,North,0,0.0,0.0,97,0.00,,,0.00,,2013-07-26 12:02:00,
2013-07-26 07:12:00,60.0,60.0,30.00,North,0,0.0,0.0,100,0.00,,,0.00,,2013-07-26 12:12:00,
2013-07-26 07:22:00,62.0,62.0,29.99,North,0,0.0,0.0,100,0.00,,,0.00,,2013-07-26 12:22:00,
2013-07-26 07:33:00,63.0,63.0,29.99,North,0,0.0,0.0,100,0.00,,,0.00,,2013-07-26 12:33:00,
2013-07-26 08:02:00,68.0,68.0,29.98,North,0,0.0,0.0,100,0.00,,,0.00,,2013-07-26 13:02:00,
2013-07-26 08:12:00,70.0,68.0,29.98,North,0,0.0,0.0,95,0.00,,,0.00,,2013-07-26 13:12:00,
2013-07-26 08:43:00,73.0,63.0,29.98,NNE,31,0.0,2.0,71,0.00,,,0.00,,2013-07-26 13:43:00,
2013-07-26 08:53:00,74.0,65.0,29.98,NNE,31,0.0,2.0,73,0.00,,,0.00,,2013-07-26 13:53:00,
2013-07-26 09:02:00,75.0,64.0,29.99,North,0,0.0,0.0,68,0.00,,,0.00,,2013-07-26 14:02:00,
2013-07-26 09:12:00,75.0,63.0,29.99,North,0,0.0,0.0,67,0.00,,,0.00,,2013-07-26 14:12:00,
2013-07-26 09:32:00,77.0,63.0,29.99,North,0,0.0,0.0,63,0.00,,,0.00,,2013-07-26 14:32:00,
2013-07-26 09:43:00,76.0,62.0,29.99,NNE,31,0.0,2.0,62,0.00,,,0.00,,2013-07-26 14:43:00,
2013-07-26 10:02:00,76.0,60.0,30.00,NW,319,0.0,3.0,58,0.00,,,0.00,,2013-07-26 15:02:00,
2013-07-26 10:12:00,76.0,61.0,30.00,WNW,290,0.0,4.0,60,0.00,,,0.00,,2013-07-26 15:12:00,
2013-07-26 10:22:00,76.0,62.0,29.99,West,271,0.0,3.0,61,0.00,,,0.00,,2013-07-26 15:22:00,
2013-07-26 10:33:00,77.0,62.0,29.99,SSW,193,0.0,3.0,59,0.00,,,0.00,,2013-07-26 15:33:00,
2013-07-26 10:43:00,78.0,62.0,29.99,SSW,193,0.0,3.0,57,0.00,,,0.00,,2013-07-26 15:43:00,
2013-07-26 10:53:00,78.0,61.0,29.99,WSW,243,0.0,6.0,55,0.00,,,0.00,,2013-07-26 15:53:00,
2013-07-26 11:02:00,78.0,61.0,29.99,WSW,248,1.0,6.0,55,0.00,,,0.00,,2013-07-26 16:02:00,
2013-07-26 11:14:00,78.0,62.0,29.99,WNW,299,0.0,2.0,58,0.00,,,0.00,,2013-07-26 16:14:00,
2013-07-26 11:22:00,77.0,60.0,29.99,WSW,250,1.0,6.0,55,0.00,,,0.00,,2013-07-26 16:22:00,
2013-07-26 11:32:00,78.0,61.0,29.99,WSW,241,0.0,3.0,55,0.00,,,0.00,,2013-07-26 16:32:00,
2013-07-26 11:43:00,78.0,60.0,29.99,NNW,329,0.0,5.0,54,0.00,,,0.00,,2013-07-26 16:43:00,
2013-07-26 11:54:00,79.0,62.0,29.98,WSW,254,0.0,3.0,56,0.00,,,0.00,,2013-07-26 16:54:00,
2013-07-26 12:02:00,78.0,62.0,29.98,NW,306,1.0,7.0,57,0.00,,,0.00,,2013-07-26 17:02:00,
2013-07-26 12:12:00,78.0,61.0,29.98,WSW,244,0.0,3.0,55,0.00,,,0.00,,2013-07-26 17:12:00,
2013-07-26 12:22:00,79.0,62.0,29.98,NNW,340,0.0,5.0,56,0.00,,,0.00,,2013-07-26 17:22:00,
2013-07-26 12:33:00,78.0,62.0,29.98,West,268,0.0,4.0,57,0.00,,,0.00,,2013-07-26 17:33:00,
2013-07-26 12:43:00,78.0,59.0,29.98,West,279,0.0,6.0,52,0.00,,,0.00,,2013-07-26 17:43:00,
2013-07-26 12:53:00,78.0,57.0,29.98,West,281,0.0,7.0,49,0.00,,,0.00,,2013-07-26 17:53:00,
2013-07-26 13:02:00,80.0,61.0,29.98,North,0,0.0,0.0,52,0.00,,,0.00,,2013-07-26 18:02:00,
2013-07-26 13:12:00,80.0,62.0,29.98,WNW,282,0.0,8.0,55,0.00,,,0.00,,2013-07-26 18:12:00,
2013-07-26 13:23:00,79.0,59.0,29.98,West,271,0.0,3.0,50,0.00,,,0.00,,2013-07-26 18:23:00,
2013-07-26 13:33:00,79.0,60.0,29.98,NW,305,0.0,5.0,53,0.00,,,0.00,,2013-07-26 18:33:00,
2013-07-26 13:43:00,79.0,60.0,29.98,NW,305,0.0,5.0,53,0.00,,,0.00,,2013-07-26 18:43:00,
2013-07-26 13:52:00,80.0,61.0,29.98,West,263,1.0,8.0,52,0.00,,,0.00,,2013-07-26 18:52:00,
2013-07-26 14:03:00,80.0,60.0,29.98,NNW,344,2.0,6.0,51,0.00,,,0.00,,2013-07-26 19:03:00,
2013-07-26 14:12:00,80.0,59.0,29.98,West,266,0.0,5.0,49,0.00,,,0.00,,2013-07-26 19:12:00,
2013-07-26 14:22:00,80.0,61.0,29.98,WSW,246,1.0,5.0,53,0.00,,,0.00,,2013-07-26 19:22:00,
2013-07-26 14:32:00,81.0,60.0,29.97,West,259,1.0,8.0,49,0.00,,,0.00,,2013-07-26 19:32:00,
2013-07-26 14:43:00,82.0,61.0,29.97,North,355,0.0,3.0,49,0.00,,,0.00,,2013-07-26 19:43:00,
2013-07-26 14:52:00,82.0,61.0,29.97,North,355,0.0,3.0,49,0.00,,,0.00,,2013-07-26 19:52:00,
2013-07-26 15:02:00,80.0,61.0,29.97,NW,310,1.0,6.0,52,0.00,,,0.00,,2013-07-26 20:02:00,
2013-07-26 15:12:00,80.0,62.0,29.97,WNW,290,0.0,5.0,54,0.00,,,0.00,,2013-07-26 20:12:00,
2013-07-26 15:22:00,80.0,61.0,29.97,WNW,287,0.0,3.0,52,0.00,,,0.00,,2013-07-26 20:22:00,
2013-07-26 15:32:00,80.0,62.0,29.96,NW,316,0.0,3.0,55,0.00,,,0.00,,2013-07-26 20:32:00,
2013-07-26 15:43:00,79.0,62.0,29.96,NW,310,0.0,3.0,56,0.00,,,0.00,,2013-07-26 20:43:00,
2013-07-26 15:53:00,79.0,61.0,29.96,North,0,0.0,0.0,55,0.00,,,0.00,,2013-07-26 20:53:00,
2013-07-26 16:02:00,79.0,62.0,29.96,NW,307,0.0,3.0,57,0.00,,,0.00,,2013-07-26 21:02:00,
2013-07-26 16:12:00,79.0,63.0,29.96,North,0,0.0,0.0,59,0.00,,,0.00,,2013-07-26 21:12:00,
2013-07-26 16:22:00,79.0,61.0,29.96,NW,326,0.0,5.0,55,0.00,,,0.00,,2013-07-26 21:22:00,
2013-07-26 16:32:00,79.0,62.0,29.96,NNW,329,0.0,3.0,56,0.00,,,0.00,,2013-07-26 21:32:00,
2013-07-26 16:43:00,79.0,63.0,29.96,NNW,329,0.0,3.0,58,0.00,,,0.00,,2013-07-26 21:43:00,
2013-07-26 16:53:00,79.0,63.0,29.96,North,0,0.0,0.0,59,0.00,,,0.00,,2013-07-26 21:53:00,
2013-07-26 17:02:00,79.0,63.0,29.96,North,0,0.0,0.0,59,0.00,,,0.00,,2013-07-26 22:02:00,
2013-07-26 17:12:00,79.0,63.0,29.96,North,0,0.0,0.0,58,0.00,,,0.00,,2013-07-26 22:12:00,
2013-07-26 17:22:00,80.0,64.0,29.96,North,0,0.0,0.0,59,0.00,,,0.00,,2013-07-26 22:22:00,
2013-07-26 17:33:00,79.0,63.0,29.96,NNW,329,0.0,2.0,59,0.00,,,0.00,,2013-07-26 22:33:00,
2013-07-26 17:43:00,79.0,65.0,29.96,North,0,0.0,0.0,62,0.00,,,0.00,,2013-07-26 22:43:00,
2013-07-26 17:53:00,78.0,64.0,29.96,North,0,0.0,0.0,63,0.00,,,0.00,,2013-07-26 22:53:00,
2013-07-26 18:02:00,78.0,66.0,29.96,North,0,0.0,0.0,67,0.00,,,0.00,,2013-07-26 23:02:00,
2013-07-26 18:12:00,78.0,67.0,29.96,NNW,329,0.0,1.0,69,0.00,,,0.00,,2013-07-26 23:12:00,
2013-07-26 18:22:00,78.0,67.0,29.96,North,0,0.0,0.0,69,0.00,,,0.00,,2013-07-26 23:22:00,
2013-07-26 18:32:00,77.0,66.0,29.96,North,0,0.0,0.0,69,0.00,,,0.00,,2013-07-26 23:32:00,
2013-07-26 18:43:00,77.0,67.0,29.96,North,0,0.0,0.0,71,0.00,,,0.00,,2013-07-26 23:43:00,
2013-07-26 19:02:00,76.0,66.0,29.96,West,269,0.0,4.0,72,0.00,,,0.00,,2013-07-27 00:02:00,
2013-07-26 19:12:00,75.0,66.0,29.96,West,265,0.0,1.0,73,0.00,,,0.00,,2013-07-27 00:12:00,
2013-07-26 19:22:00,75.0,66.0,29.95,North,0,0.0,0.0,73,0.00,,,0.00,,2013-07-27 00:22:00,
2013-07-26 19:32:00,75.0,66.0,29.94,North,0,0.0,0.0,73,0.00,,,0.00,,2013-07-27 00:32:00,
2013-07-26 19:43:00,75.0,65.0,29.94,North,0,0.0,0.0,72,0.00,,,0.00,,2013-07-27 00:43:00,
2013-07-26 19:53:00,74.0,65.0,29.93,North,0,0.0,0.0,73,0.00,,,0.00,,2013-07-27 00:53:00,
2013-07-26 20:02:00,74.0,66.0,29.93,North,0,0.0,0.0,76,0.00,,,0.00,,2013-07-27 01:02:00,
2013-07-26 20:12:00,73.0,66.0,29.94,North,0,0.0,0.0,79,0.00,,,0.00,,2013-07-27 01:12:00,
2013-07-26 20:32:00,73.0,66.0,29.93,North,0,0.0,0.0,80,0.00,,,0.00,,2013-07-27 01:32:00,
2013-07-26 20:43:00,72.0,66.0,29.93,North,0,0.0,0.0,81,0.00,,,0.00,,2013-07-27 01:43:00,
2013-07-26 20:53:00,72.0,66.0,29.93,North,0,0.0,0.0,82,0.00,,,0.00,,2013-07-27 01:53:00,
2013-07-26 21:02:00,72.0,66.0,29.92,North,0,0.0,0.0,82,0.00,,,0.00,,2013-07-27 02:02:00,
2013-07-26 21:12:00,72.0,67.0,29.92,North,0,0.0,0.0,83,0.00,,,0.00,,2013-07-27 02:12:00,
2013-07-26 21:22:00,72.0,66.0,29.92,WNW,303,0.0,4.0,82,0.00,,,0.00,,2013-07-27 02:22:00,
2013-07-26 21:32:00,72.0,66.0,29.92,NW,313,0.0,4.0,82,0.00,,,0.00,,2013-07-27 02:32:00,
2013-07-26 21:43:00,72.0,66.0,29.92,North,0,0.0,0.0,82,0.00,,,0.00,,2013-07-27 02:43:00,
2013-07-26 21:52:00,71.0,66.0,29.92,North,0,0.0,0.0,83,0.00,,,0.00,,2013-07-27 02:52:00,
2013-07-26 22:03:00,71.0,65.0,29.92,North,0,0.0,0.0,82,0.00,,,0.00,,2013-07-27 03:03:00,
2013-07-26 22:12:00,71.0,65.0,29.92,North,0,0.0,0.0,82,0.00,,,0.00,,2013-07-27 03:12:00,
2013-07-26 22:22:00,71.0,66.0,29.91,North,0,0.0,0.0,83,0.00,,,0.00,,2013-07-27 03:22:00,
2013-07-26 22:33:00,71.0,66.0,29.91,North,0,0.0,0.0,83,0.00,,,0.00,,2013-07-27 03:33:00,
2013-07-26 22:44:00,71.0,66.0,29.91,North,1,0.0,1.0,83,0.00,,,0.00,,2013-07-27 03:44:00,
2013-07-26 22:52:00,71.0,65.0,29.90,North,10,0.0,3.0,82,0.00,,,0.00,,2013-07-27 03:52:00,
2013-07-26 23:02:00,72.0,65.0,29.88,NE,43,1.0,6.0,78,0.00,,,0.00,,2013-07-27 04:02:00,
2013-07-26 23:12:00,72.0,64.0,29.88,NE,55,0.0,6.0,75,0.00,,,0.00,,2013-07-27 04:12:00,
2013-07-26 23:22:00,72.0,62.0,29.88,ENE,62,0.0,3.0,72,0.00,,,0.00,,2013-07-27 04:22:00,
2013-07-26 23:32:00,72.0,63.0,29.88,NE,54,0.0,6.0,74,0.00,,,0.00,,2013-07-27 04:32:00,
2013-07-26 23:43:00,72.0,64.0,29.88,ENE,57,0.0,6.0,75,0.00,,,0.00,,2013-07-27 04:43:00,
2013-07-26 23:53:00,72.0,64.0,29.88,ENE,57,0.0,5.0,76,0.00,,,0.00,,2013-07-27 04:53:00,